Overview Statistics Trail Chart Weather Telemetry Raw packets
 

This is the latest recevied weather packets stored in our database for station/object LU1MQF-10. If no packets are shown the sender has not sent any weather packets the latest 10 day(s).

<< 1 2 3 4 >>
Time Temp. Humidity Pressure Rain* Wind** Luminosity Snow
1778031897 18.89° C 42% 1017.5 hPa - - - -
1778031892 18.89° C 42% 1017.5 hPa - - - -
1778030997 18.89° C 42% 1017.4 hPa - - - -
1778030991 18.89° C 42% 1017.4 hPa - - - -
1778030097 18.89° C 42% 1017.4 hPa - - - -
1778030091 18.89° C 42% 1017.4 hPa - - - -
1778029197 19.44° C 41% 1017.4 hPa - - - -
1778029191 19.44° C 41% 1017.4 hPa - - - -
1778028297 19.44° C 41% 1017.4 hPa - - - -
1778028291 19.44° C 41% 1017.4 hPa - - - -
1778027397 19.44° C 41% 1017.5 hPa - - - -
1778027391 19.44° C 41% 1017.5 hPa - - - -
1778026499 19.44° C 41% 1017.4 hPa - - - -
1778026491 19.44° C 41% 1017.4 hPa - - - -
1778025590 19.44° C 42% 1017.4 hPa - - - -
1778024689 19.44° C 42% 1017.3 hPa - - - -
1778023792 18.89° C 42% 1017.2 hPa - - - -
1778023788 18.89° C 42% 1017.2 hPa - - - -
1778022891 18.33° C 42% 1017.1 hPa - - - -
1778022887 18.33° C 42% 1017.1 hPa - - - -
1778021991 18.33° C 43% 1016.9 hPa - - - -
1778021987 18.33° C 43% 1016.9 hPa - - - -
1778021086 17.78° C 45% 1016.7 hPa - - - -
1778020190 18.33° C 44% 1016.9 hPa - - - -
1778020186 18.33° C 44% 1016.9 hPa - - - -

* Rain since midnight (hover to see other rain measurements)
** Current wind speed in m/s (hover to see current wind gust speed)